| time (UTC) | temp F | wind direction | speed knots | gust knots | rain 1hr in | rain 24hr in | rain mn in | humidity % | barometer mb |
| 20260906083508 | 61 | 320 | 22.6 | 33.0 | 0.00 | 0.00 | 0.00 | 88 | 1008.3 |
| 20260906081506 | 61 | 317 | 20.9 | 68.6 | 0.00 | 0.00 | 0.00 | 89 | 1008.4 |
| 20260906081008 | 61 | 314 | 18.2 | 28.7 | 0.00 | 0.00 | 0.00 | 90 | 1008.3 |
| 20260906075507 | 60 | 320 | 21.7 | 31.3 | 0.00 | 0.00 | 0.00 | 90 | 1008.5 |
| 20260906074006 | 60 | 317 | 20.9 | 26.9 | 0.00 | 0.00 | 0.00 | 92 | 1008.6 |
| 20260906073507 | 60 | 317 | 21.7 | 30.4 | 0.00 | 0.00 | 0.00 | 92 | 1008.9 |
| 20260906072006 | 60 | 320 | 21.7 | 33.0 | 0.00 | 0.00 | 0.00 | 93 | 1009.1 |
| 20260906071507 | 60 | 321 | 25.2 | 33.9 | 0.00 | 0.00 | 0.00 | 93 | 1009.0 |
| 20260906071006 | 59 | 316 | 26.1 | 33.9 | 0.00 | 0.00 | 0.00 | 93 | 1009.1 |
| 20260906070506 | 59 | 319 | 27.8 | 39.1 | 0.00 | 0.00 | 0.00 | 93 | 1009.1 |
| 20260906070007 | 59 | 318 | 28.7 | 37.4 | 0.00 | 0.00 | 0.00 | 92 | 1009.3 |
| 20260906065505 | 59 | 315 | 26.9 | 34.8 | 0.00 | 0.00 | 0.00 | 92 | 1009.1 |
| 20260906064006 | 60 | 323 | 27.8 | 35.6 | 0.00 | 0.00 | 0.00 | 89 | 1009.5 |
| 20260906063006 | 60 | 319 | 26.9 | 35.6 | 0.00 | 0.00 | 0.00 | 88 | 1009.4 |
| 20260906062006 | 60 | 312 | 26.9 | 34.8 | 0.00 | 0.00 | 0.00 | 87 | 1009.5 |
| 20260906061505 | 60 | 321 | 27.8 | 40.0 | 0.00 | 0.00 | 0.00 | 86 | 1009.6 |
| 20260906060505 | 60 | 317 | 29.5 | 39.1 | 0.00 | 0.00 | 0.00 | 86 | 1009.5 |
| 20260906054005 | 60 | 322 | 19.1 | 34.8 | 0.00 | 0.00 | 0.00 | 84 | 1010.0 |
| 20260906052006 | 60 | 324 | 19.1 | 26.9 | 0.00 | 0.00 | 0.00 | 83 | 1010.2 |
| 20260906051506 | 60 | 308 | 22.6 | 28.7 | 0.00 | 0.00 | 0.00 | 82 | 1010.2 |
| 20260906051007 | 60 | 315 | 16.5 | 28.7 | 0.00 | 0.00 | 0.00 | 81 | 1010.3 |
| 20260906050507 | 60 | 325 | 20.0 | 31.3 | 0.00 | 0.00 | 0.00 | 80 | 1010.2 |
| 20260906045507 | 60 | 325 | 15.6 | 22.6 | 0.00 | 0.00 | 0.00 | 79 | 1010.3 |
| 20260906045006 | 60 | 321 | 13.9 | 20.9 | 0.00 | 0.00 | 0.00 | 79 | 1010.3 |
| 20260906044505 | 60 | 321 | 14.8 | 22.6 | 0.00 | 0.00 | 0.00 | 78 | 1010.5 |
| 20260906044006 | 60 | 316 | 18.2 | 24.3 | 0.00 | 0.00 | 0.00 | 78 | 1010.4 |
| 20260906041006 | 60 | 321 | 20.0 | 27.8 | 0.00 | 0.00 | 0.00 | 76 | 1010.9 |
| 20260906040005 | 61 | 327 | 21.7 | 27.8 | 0.00 | 0.00 | 0.00 | 76 | 1011.0 |
| 20260906035505 | 61 | 310 | 20.9 | 26.9 | 0.00 | 0.00 | 0.00 | 75 | 1011.2 |
| 20260906034505 | 62 | 318 | 20.9 | 30.4 | 0.00 | 0.00 | 0.00 | 75 | 1011.2 |
| 20260906034006 | 62 | 320 | 15.6 | 25.2 | 0.00 | 0.00 | 0.00 | 77 | 1011.4 |
| 20260906032505 | 61 | 316 | 26.1 | 33.9 | 0.00 | 0.00 | 0.00 | 77 | 1011.3 |
| 20260906031006 | 60 | 325 | 25.2 | 35.6 | 0.00 | 0.00 | 0.00 | 81 | 1011.9 |
| 20260906030005 | 61 | 326 | 19.1 | 31.3 | 0.00 | 0.00 | 0.00 | 81 | 1012.3 |
| 20260906025507 | 61 | 323 | 20.9 | 33.0 | 0.00 | 0.00 | 0.00 | 82 | 1012.2 |
| 20260906024505 | 61 | 318 | 23.5 | 31.3 | 0.00 | 0.00 | 0.00 | 80 | 1012.4 |
| 20260906023005 | 62 | 319 | 21.7 | 30.4 | 0.00 | 0.00 | 0.00 | 79 | 1012.4 |
| 20260906022505 | 62 | 321 | 21.7 | 28.7 | 0.00 | 0.00 | 0.00 | 80 | 1012.3 |
| 20260906022007 | 62 | 327 | 18.2 | 31.3 | 0.00 | 0.00 | 0.00 | 79 | 1012.4 |
| 20260906021505 | 62 | 323 | 17.4 | 24.3 | 0.00 | 0.00 | 0.00 | 82 | 1012.5 |
| 20260906015505 | 61 | 318 | 23.5 | 31.3 | 0.00 | 0.00 | 0.00 | 78 | 1012.7 |
| 20260906015005 | 61 | 320 | 20.0 | 26.9 | 0.00 | 0.00 | 0.00 | 78 | 1012.8 |
| 20260906014007 | 61 | 319 | 22.6 | 30.4 | 0.00 | 0.00 | 0.00 | 76 | 1012.7 |
| 20260906012506 | 62 | 320 | 20.9 | 31.3 | 0.00 | 0.00 | 0.00 | 75 | 1013.0 |
| 20260906012005 | 62 | 322 | 19.1 | 26.1 | 0.00 | 0.00 | 0.00 | 75 | 1013.2 |
| 20260906011505 | 62 | 324 | 19.1 | 27.8 | 0.00 | 0.00 | 0.00 | 76 | 1013.2 |
| 20260906011005 | 62 | 310 | 17.4 | 26.9 | 0.00 | 0.00 | 0.00 | 75 | 1013.1 |
| 20260906010506 | 62 | 319 | 22.6 | 32.2 | 0.00 | 0.00 | 0.00 | 74 | 1013.4 |
| 20260906010005 | 62 | 317 | 20.9 | 28.7 | 0.00 | 0.00 | 0.00 | 74 | 1013.2 |
| 20260906005505 | 62 | 317 | 21.7 | 26.9 | 0.00 | 0.00 | 0.00 | 74 | 1013.4 |
| 20260906004507 | 62 | 320 | 21.7 | 28.7 | 0.00 | 0.00 | 0.00 | 77 | 1013.8 |
| 20260906004005 | 62 | 331 | 22.6 | 30.4 | 0.00 | 0.00 | 0.00 | 76 | 1013.9 |
| 20260906003006 | 62 | 316 | 24.3 | 32.2 | 0.00 | 0.00 | 0.00 | 75 | 1014.0 |
| 20260906001005 | 61 | 320 | 20.9 | 27.8 | 0.00 | 0.00 | 0.00 | 76 | 1014.4 |
| 20260906000006 | 61 | 315 | 20.9 | 30.4 | 0.00 | 0.00 | 0.00 | 76 | 1014.7 |
| 20260905235005 | 61 | 324 | 19.1 | 26.9 | 0.00 | 0.00 | 0.00 | 76 | 1014.8 |
| 20260905234504 | 61 | 322 | 13.0 | 20.9 | 0.00 | 0.00 | 0.00 | 77 | 1014.9 |
| 20260905233505 | 61 | 322 | 20.9 | 27.8 | 0.00 | 0.00 | 0.00 | 76 | 1015.0 |
| 20260905233007 | 61 | 321 | 18.2 | 26.9 | 0.00 | 0.00 | 0.00 | 75 | 1015.0 |
| 20260905232507 | 61 | 314 | 17.4 | 24.3 | 0.00 | 0.00 | 0.00 | 75 | 1015.2 |
| 20260905232005 | 61 | 327 | 18.2 | 22.6 | 0.00 | 0.00 | 0.00 | 76 | 1015.2 |
| 20260905231505 | 61 | 313 | 15.6 | 26.1 | 0.00 | 0.00 | 0.00 | 76 | 1015.3 |
| 20260905231005 | 61 | 321 | 21.7 | 27.8 | 0.00 | 0.00 | 0.00 | 76 | 1015.2 |
| 20260905230506 | 62 | 319 | 20.9 | 27.8 | 0.00 | 0.00 | 0.00 | 77 | 1015.3 |
| 20260905224506 | 60 | 331 | 15.6 | 24.3 | 0.00 | 0.00 | 0.00 | 79 | 1015.5 |
| 20260905223505 | 60 | 325 | 21.7 | 26.9 | 0.00 | 0.00 | 0.00 | 79 | 1015.6 |
| 20260905223007 | 60 | 316 | 18.2 | 24.3 | 0.00 | 0.00 | 0.00 | 81 | 1015.7 |
| 20260905222505 | 59 | 317 | 17.4 | 22.6 | 0.00 | 0.00 | 0.00 | 80 | 1015.8 |
| 20260905222006 | 59 | 320 | 17.4 | 22.6 | 0.00 | 0.00 | 0.00 | 81 | 1016.0 |
| 20260905221506 | 59 | 319 | 15.6 | 20.9 | 0.00 | 0.00 | 0.00 | 81 | 1016.0 |
| 20260905221005 | 59 | 329 | 14.8 | 20.9 | 0.00 | 0.00 | 0.00 | 81 | 1016.0 |
| 20260905215005 | 60 | 325 | 12.2 | 19.1 | 0.00 | 0.00 | 0.00 | 81 | 1016.2 |
| 20260905214507 | 60 | 326 | 13.9 | 21.7 | 0.00 | 0.00 | 0.00 | 81 | 1016.4 |
| 20260905213006 | 60 | 323 | 14.8 | 20.0 | 0.00 | 0.00 | 0.00 | 82 | 1016.6 |
| 20260905212505 | 59 | 313 | 13.9 | 24.3 | 0.00 | 0.00 | 0.00 | 81 | 1016.7 |
| 20260905211506 | 59 | 327 | 14.8 | 20.9 | 0.00 | 0.00 | 0.00 | 82 | 1016.6 |
| 20260905205504 | 59 | 320 | 12.2 | 19.1 | 0.00 | 0.00 | 0.00 | 84 | 1016.7 |
| 20260905204505 | 58 | 322 | 11.3 | 17.4 | 0.00 | 0.00 | 0.00 | 85 | 1016.5 |
| 20260905204006 | 58 | 328 | 10.4 | 17.4 | 0.00 | 0.00 | 0.00 | 86 | 1016.9 |
| 20260905203505 | 57 | 314 | 13.9 | 19.1 | 0.00 | 0.00 | 0.00 | 86 | 1016.5 |
| 20260905202506 | 57 | 315 | 13.9 | 18.2 | 0.00 | 0.00 | 0.00 | 87 | 1016.6 |
| 20260905195506 | 56 | 319 | 15.6 | 19.1 | 0.00 | 0.00 | 0.00 | 89 | 1016.4 |
| 20260905195005 | 56 | 324 | 13.9 | 17.4 | 0.00 | 0.00 | 0.00 | 89 | 1016.5 |
| 20260905193504 | 55 | 319 | 13.9 | 18.2 | 0.00 | 0.00 | 0.00 | 90 | 1016.3 |
| 20260905193005 | 55 | 317 | 11.3 | 13.9 | 0.00 | 0.00 | 0.00 | 90 | 1016.4 |
| 20260905191505 | 55 | 318 | 8.7 | 11.3 | 0.00 | 0.00 | 0.00 | 90 | 1016.6 |
| 20260905191005 | 55 | 324 | 7.8 | 11.3 | 0.00 | 0.00 | 0.00 | 90 | 1016.5 |
| 20260905185505 | 55 | 335 | 7.8 | 11.3 | 0.00 | 0.00 | 0.00 | 91 | 1016.5 |
| 20260905184504 | 55 | 328 | 7.8 | 11.3 | 0.00 | 0.00 | 0.00 | 91 | 1016.3 |
| 20260905183005 | 54 | 344 | 6.1 | 10.4 | 0.00 | 0.00 | 0.00 | 91 | 1016.1 |
| 20260905182504 | 54 | 338 | 5.2 | 7.8 | 0.00 | 0.00 | 0.00 | 90 | 1016.1 |
| 20260905182005 | 54 | 336 | 5.2 | 8.7 | 0.00 | 0.00 | 0.00 | 90 | 1016.0 |
| 20260905181005 | 54 | 314 | 7.0 | 11.3 | 0.00 | 0.00 | 0.00 | 90 | 1015.9 |
| 20260905175505 | 54 | 334 | 6.1 | 10.4 | 0.00 | 0.00 | 0.00 | 90 | 1016.0 |
| 20260905174504 | 54 | 336 | 6.1 | 11.3 | 0.00 | 0.00 | 0.00 | 90 | 1016.1 |
| 20260905173504 | 53 | 319 | 8.7 | 12.2 | 0.00 | 0.00 | 0.00 | 90 | 1016.2 |
| 20260905172505 | 53 | 320 | 8.7 | 13.0 | 0.00 | 0.00 | 0.00 | 90 | 1016.1 |
| 20260905171504 | 53 | 312 | 10.4 | 13.0 | 0.00 | 0.00 | 0.00 | 90 | 1016.2 |
| 20260905171006 | 53 | 317 | 11.3 | 13.9 | 0.00 | 0.00 | 0.00 | 90 | 1015.9 |
| 20260905170504 | 53 | 316 | 10.4 | 13.0 | 0.00 | 0.00 | 0.00 | 90 | 1016.0 |
| 20260905165506 | 53 | 318 | 10.4 | 13.0 | 0.00 | 0.00 | 0.00 | 90 | 1015.9 |
| 20260905164006 | 53 | 314 | 8.7 | 13.0 | 0.00 | 0.00 | 0.00 | 90 | 1015.7 |
| 20260905163007 | 53 | 314 | 7.8 | 11.3 | 0.00 | 0.00 | 0.00 | 89 | 1015.6 |
| 20260905162506 | 53 | 312 | 7.8 | 11.3 | 0.00 | 0.00 | 0.00 | 89 | 1015.7 |
| 20260905161508 | 53 | 315 | 8.7 | 13.0 | 0.00 | 0.00 | 0.00 | 89 | 1015.6 |
| 20260905155007 | 53 | 312 | 4.3 | 7.0 | 0.00 | 0.00 | 0.00 | 89 | 1015.8 |
| 20260905154506 | 53 | 317 | 6.1 | 8.7 | 0.00 | 0.00 | 0.00 | 89 | 1015.7 |
| 20260905154008 | 53 | 320 | 5.2 | 8.7 | 0.00 | 0.00 | 0.00 | 89 | 1015.7 |
| 20260905153506 | 53 | 314 | 7.0 | 8.7 | 0.00 | 0.00 | 0.00 | 89 | 1015.7 |
| 20260905153007 | 53 | 317 | 8.7 | 11.3 | 0.00 | 0.00 | 0.00 | 89 | 1015.8 |
| 20260905152507 | 53 | 317 | 7.0 | 11.3 | 0.00 | 0.00 | 0.00 | 89 | 1015.8 |
| 20260905152006 | 53 | 314 | 9.6 | 13.0 | 0.00 | 0.00 | 0.00 | 89 | 1015.8 |
| 20260905151506 | 54 | 320 | 8.7 | 12.2 | 0.00 | 0.00 | 0.00 | 89 | 1015.9 |
| 20260905150506 | 54 | 315 | 8.7 | 13.9 | 0.00 | 0.00 | 0.00 | 90 | 1016.1 |
| 20260905150006 | 54 | 314 | 8.7 | 13.0 | 0.00 | 0.00 | 0.00 | 90 | 1016.0 |
| 20260905145507 | 54 | 318 | 10.4 | 13.0 | 0.00 | 0.00 | 0.00 | 90 | 1016.1 |
| 20260905144506 | 54 | 318 | 10.4 | 13.0 | 0.00 | 0.00 | 0.00 | 90 | 1016.2 |
| 20260905142508 | 53 | 308 | 10.4 | 13.0 | 0.00 | 0.00 | 0.00 | 90 | 1016.4 |
| 20260905134506 | 53 | 306 | 5.2 | 11.3 | 0.00 | 0.00 | 0.00 | 90 | 1017.2 |
| 20260905133506 | 53 | 296 | 5.2 | 13.9 | 0.00 | 0.00 | 0.00 | 90 | 1017.0 |
| 20260905133007 | 53 | 294 | 7.8 | 14.8 | 0.00 | 0.00 | 0.00 | 90 | 1017.1 |
| 20260905132506 | 53 | 283 | 8.7 | 17.4 | 0.00 | 0.00 | 0.00 | 90 | 1017.1 |
| 20260905132006 | 53 | 298 | 6.1 | 15.6 | 0.00 | 0.00 | 0.00 | 90 | 1017.1 |
| 20260905131006 | 53 | 298 | 6.1 | 11.3 | 0.00 | 0.00 | 0.00 | 89 | 1017.1 |
| 20260905130506 | 53 | 297 | 5.2 | 10.4 | 0.00 | 0.00 | 0.00 | 88 | 1017.3 |
| 20260905125006 | 53 | 288 | 5.2 | 12.2 | 0.00 | 0.00 | 0.00 | 88 | 1017.5 |
| 20260905123507 | 54 | 305 | 5.2 | 11.3 | 0.00 | 0.00 | 0.00 | 87 | 1017.3 |
| 20260905122007 | 54 | 268 | 4.3 | 10.4 | 0.00 | 0.00 | 0.00 | 87 | 1017.6 |
| 20260905121006 | 54 | 291 | 7.0 | 13.0 | 0.00 | 0.00 | 0.00 | 86 | 1017.6 |
| 20260905120506 | 54 | 294 | 6.1 | 12.2 | 0.00 | 0.00 | 0.00 | 86 | 1017.7 |
| 20260905120007 | 54 | 273 | 4.3 | 11.3 | 0.00 | 0.00 | 0.00 | 85 | 1017.8 |
| 20260905115006 | 54 | 270 | 6.1 | 13.0 | 0.00 | 0.00 | 0.00 | 85 | 1017.8 |
| 20260905114506 | 54 | 255 | 8.7 | 15.6 | 0.00 | 0.00 | 0.00 | 85 | 1017.9 |
| 20260905113006 | 54 | 273 | 6.1 | 11.3 | 0.00 | 0.00 | 0.00 | 85 | 1018.2 |
| 20260905112506 | 54 | 260 | 7.8 | 13.0 | 0.00 | 0.00 | 0.00 | 84 | 1017.9 |
| 20260905112007 | 54 | 253 | 8.7 | 13.9 | 0.00 | 0.00 | 0.00 | 84 | 1018.0 |
| 20260905111505 | 55 | 263 | 6.1 | 15.6 | 0.00 | 0.00 | 0.00 | 84 | 1018.1 |
| 20260905110506 | 54 | 258 | 10.4 | 15.6 | 0.00 | 0.00 | 0.00 | 85 | 1018.1 |
| 20260905110007 | 54 | 254 | 10.4 | 18.2 | 0.00 | 0.00 | 0.00 | 85 | 1018.2 |
| 20260905105006 | 53 | 250 | 10.4 | 17.4 | 0.00 | 0.00 | 0.00 | 86 | 1018.2 |
| 20260905104507 | 53 | 260 | 10.4 | 15.6 | 0.00 | 0.00 | 0.00 | 86 | 1018.3 |
| 20260905103506 | 53 | 286 | 5.2 | 11.3 | 0.00 | 0.00 | 0.00 | 86 | 1018.4 |
| 20260905103006 | 53 | 262 | 6.1 | 10.4 | 0.00 | 0.00 | 0.00 | 85 | 1018.5 |
| 20260905102507 | 53 | 259 | 6.1 | 12.2 | 0.00 | 0.00 | 0.00 | 85 | 1018.3 |
| 20260905102005 | 52 | 268 | 5.2 | 11.3 | 0.00 | 0.00 | 0.00 | 85 | 1018.1 |
| 20260905101506 | 52 | 262 | 6.1 | 11.3 | 0.00 | 0.00 | 0.00 | 84 | 1018.1 |
| 20260905101007 | 52 | 280 | 4.3 | 8.7 | 0.00 | 0.00 | 0.00 | 84 | 1018.1 |
| 20260905100506 | 53 | 299 | 5.2 | 11.3 | 0.00 | 0.00 | 0.00 | 84 | 1018.0 |
| 20260905095006 | 53 | 297 | 6.1 | 12.2 | 0.00 | 0.00 | 0.00 | 82 | 1018.1 |
| 20260905093507 | 53 | 297 | 4.3 | 12.2 | 0.00 | 0.00 | 0.00 | 81 | 1018.1 |
| 20260905093006 | 54 | 272 | 5.2 | 11.3 | 0.00 | 0.00 | 0.00 | 81 | 1018.1 |
| 20260905092506 | 54 | 259 | 7.8 | 13.0 | 0.00 | 0.00 | 0.00 | 80 | 1017.9 |
| 20260905091505 | 54 | 252 | 10.4 | 17.4 | 0.00 | 0.00 | 0.00 | 80 | 1018.1 |
| 20260905090006 | 54 | 253 | 12.2 | 18.2 | 0.00 | 0.00 | 0.00 | 80 | 1018.1 |
| 20260905085007 | 54 | 250 | 10.4 | 19.1 | 0.00 | 0.00 | 0.00 | 80 | 1018.3 |
| 20260905084007 | 54 | 274 | 13.9 | 22.6 | 0.00 | 0.00 | 0.00 | 81 | 1018.1 |